Location: Unspecified
(47.1121°N, 116.3927°W)
Time: 14:16:57
(UTC-07:00)

ISS - Pass Details

Date: 22 May 2019
Orbit: 407 x 418 km, 51.6° (Epoch: 25 June)

Event Time Altitude Azimuth Distance (km) Brightness Sun altitude
Rises 22:53:50 0° 281° (W) 2,358 0.6 -18.1°
Reaches altitude 10° 22:56:02 10° 290° (WNW) 1,497 -0.3 -18.2°
Maximum altitude 22:59:10 36° 359° (N) 684 -2.2 -18.5°
Drops below altitude 10° 23:02:20 10° 68° (ENE) 1,503 -1.0 -18.7°
Enters shadow 23:03:07 - 72° (ENE) 1,806 -0.6 -18.8°
